User: anonymous   Login
Location: Gleizolles
(44.4833°N, 6.7667°E)
Time: 06:09:31
(UTC+00:00)
Language:

BlueWalker 3 - Orbit

View from above orbital plane
View from above orbital plane
View from above satellite
View from above satellite

Ground track
Ground track

The orbit data is extracted from the following two-line orbital elements,

1 53807U 22111AL  24175.35217611  .00003780  00000-0  15693-3 0  9990
2 53807  53.2353 165.2110 0009764 105.5946 254.6133 15.26276189 99175
Epoch (UTC): 23 June 2024 08:27:08
Eccentricity: 0.0009764
inclination: 53.2353°
perigee height: 480 km
apogee height: 493 km
right ascension of ascending node: 165.2110°
argument of perigee: 105.5946°
revolutions per day: 15.26276189
mean anomaly at epoch: 254.6133°
orbit number at epoch: 9917

The dashed part of the orbit path shows where the satellite is in the earth's shadow,  

DLR